Location: Beccas
(43.4309°N, 0.1528°E)
Time: 17:24:09
(UTC+00:00)

Tiangong - Pass Details

Date: 29 January 2022
Orbit: 386 x 388 km, 41.5° (Epoch: 26 May)

Event Time Altitude Azimuth Distance (km) Brightness Sun altitude
Rises 17:59:13 0° 238° (WSW) 2,345 6.7 -9.8°
Reaches altitude 10° 18:01:24 10° 229° (SW) 1,491 5.2 -10.2°
Maximum altitude 18:04:32 35° 161° (SSE) 697 2.3 -10.7°
Enters shadow 18:06:55 15° 100° (E) 1,229 3.1 -11.1°
